Weather History for Port Angeles, WA

Change the Weather History Date:

Thursday, February 7, 2013

  Actual Average Record
Temperature  
Mean Temperature 40 °F -  
Max Temperature 45 °F 47 °F 55 °F (1978)
Min Temperature 35 °F 34 °F 15 °F (2014)
Degree Days  
Heating Degree Days 25    
Moisture  
Dew Point 35 °F    
Average Humidity 80    
Maximum Humidity 93    
Minimum Humidity 68    
Precipitation  
Precipitation 0.00 in - - ()
Sea Level Pressure  
Sea Level Pressure 30.00 in    
Wind  
Wind Speed 6 mph (WSW)    
Max Wind Speed 18 mph    
Max Gust Speed 26 mph    
Visibility 10 miles    
Events Rain    
Averages and records for this station are not official NWS values.
T = Trace of Precipitation, MM = Missing Value Source: NWS Daily Summary

Daily Weather History Graph

Daily Weather History Graph

Search for Another Location

Airport:

Trip Planner

Search our weather history database for the weather conditions in past years. The results will help you decide how hot, cold, wet, or windy it might be!

Date:

Astronomy

Feb. 07, 2013 Rise Set
Actual Time 7:32 AM PST 5:24 PM PST
Civil Twilight 7:00 AM PST 5:56 PM PST
Nautical Twilight 6:23 AM PST 6:33 PM PST
Astronomical Twilight 5:47 AM PST 7:09 PM PST
Moon 5:24 AM PST (2/7) 2:48 PM PST (2/7)
Length of Visible Light 10h 56m
Length of Day
9h 51m
Waning Crescent, 8% of the Moon is Illuminated
Feb 7
Waning Crescent
Feb 9
New
Feb 17
First Quarter
Feb 25
Full
Mar 4
Last Quarter

Hourly Weather History & Observations

Time (PST) Temp. Windchill Dew Point Humidity Pressure Visibility Wind Dir Wind Speed Gust Speed Precip Events Conditions
12:53 AM 44.1 °F 39.0 °F 39.0 °F 82% 29.70 in 10.0 mi West 9.2 mph - 0.00 in Rain Light Rain
1:53 AM 39.0 °F 35.7 °F 37.0 °F 93% 29.71 in 10.0 mi SE 4.6 mph - 0.00 in   Clear
2:53 AM 37.9 °F - 36.0 °F 93% 29.72 in 10.0 mi Calm Calm - N/A   Clear
3:53 AM 41.0 °F 35.8 °F 35.1 °F 79% 29.77 in 10.0 mi NW 8.1 mph - 0.00 in Rain Light Rain
4:53 AM 41.0 °F 33.9 °F 34.0 °F 76% 29.82 in 10.0 mi West 12.7 mph 20.7 mph 0.00 in Rain Light Rain
5:53 AM 43.0 °F 34.8 °F 33.1 °F 68% 29.85 in 10.0 mi West 18.4 mph 26.5 mph 0.00 in   Clear
6:53 AM 41.0 °F 38.0 °F 34.0 °F 76% 29.90 in 10.0 mi SW 4.6 mph - N/A   Overcast
7:53 AM 42.1 °F 39.2 °F 34.0 °F 73% 29.93 in 10.0 mi ENE 4.6 mph - N/A   Overcast
8:53 AM 39.0 °F - 35.1 °F 86% 29.96 in 10.0 mi Calm Calm - N/A   Clear
9:53 AM 44.1 °F 40.1 °F 36.0 °F 73% 29.98 in 10.0 mi WSW 6.9 mph - N/A   Overcast
10:53 AM 45.0 °F 41.8 °F 37.0 °F 74% 30.01 in 10.0 mi Variable 5.8 mph - N/A   Scattered Clouds
11:03 AM 44.1 °F 39.5 °F 35.1 °F 71% 30.01 in 10.0 mi NNW 8.1 mph - N/A   Mostly Cloudy
11:39 AM 43.0 °F 40.3 °F 36.0 °F 76% 30.03 in 10.0 mi NW 4.6 mph - N/A   Overcast
11:53 AM 43.0 °F 40.3 °F 36.0 °F 76% 30.04 in 10.0 mi Variable 4.6 mph - N/A   Overcast
12:07 PM 43.0 °F 40.3 °F 37.0 °F 80% 30.03 in 10.0 mi West 4.6 mph - 0.00 in Rain Light Rain
12:15 PM 43.0 °F 40.3 °F 37.0 °F 80% 30.03 in 10.0 mi SW 4.6 mph - 0.00 in   Overcast
12:53 PM 44.1 °F - 37.0 °F 76% 30.03 in 10.0 mi Calm Calm - 0.00 in   Scattered Clouds
1:53 PM 44.1 °F 42.5 °F 36.0 °F 73% 30.04 in 10.0 mi NE 3.5 mph - N/A   Scattered Clouds
2:53 PM 45.0 °F 43.5 °F 36.0 °F 71% 30.06 in 10.0 mi Variable 3.5 mph - N/A   Clear
3:53 PM 44.1 °F 42.5 °F 36.0 °F 73% 30.07 in 10.0 mi WSW 3.5 mph - N/A   Clear
4:53 PM 43.0 °F - 36.0 °F 76% 30.08 in 10.0 mi Calm Calm - N/A   Clear
5:53 PM 37.0 °F 33.3 °F 34.0 °F 89% 30.11 in 10.0 mi SW 4.6 mph - N/A   Clear
6:53 PM 35.1 °F 31.0 °F 33.1 °F 92% 30.14 in 10.0 mi SSW 4.6 mph - N/A   Clear
7:53 PM 36.0 °F 30.3 °F 34.0 °F 93% 30.15 in 10.0 mi SW 6.9 mph - N/A   Partly Cloudy
8:53 PM 37.0 °F 31.0 °F 33.1 °F 86% 30.17 in 10.0 mi WSW 8.1 mph - N/A   Clear
9:53 PM 37.9 °F 32.1 °F 34.0 °F 86% 30.19 in 10.0 mi WSW 8.1 mph - N/A   Clear
10:53 PM 37.0 °F 30.4 °F 33.1 °F 86% 30.20 in 10.0 mi WSW 9.2 mph - N/A   Clear
11:53 PM 37.0 °F 29.8 °F 33.1 °F 86% 30.21 in 10.0 mi WSW 10.4 mph - N/A   Clear